Tracking 19909 objects as of 23-Oct-2019
HD Live streaming from Space Station
objects crossing your sky now

PROGRESS MS-12

Track PROGRESS MS-12 now!
10-day predictions
PROGRESS MS-12 is classified as:


NORAD ID: 44455
Int'l Code: 2019-047A
Perigee: 418.6 km
Apogee: 427.9 km
Inclination: 51.6 °
Period: 92.9 minutes
Semi major axis: 6794 km
RCS: Unknown
Launch date: July 31, 2019
Source: Commonwealth of Independent States (former USSR) (CIS)
Launch site: TYURATAM MISSILE AND SPACE COMPLEX (TTMTR)
aabbcc
Your satellite tracking list
Your tracking list is empty




NASA's NSSDC Master Catalog

Two Line Element Set (TLE):
1 44455U 19047A   19295.52957003 +.00000656 +00000-0 +19396-4 0  9999
2 44455 051.6439 089.8371 0006849 174.4425 258.7257 15.50212614195011
Source of the keplerian elements: AFSPC